FW3222 Weather Reports


Display with metric or nautical units.
time (UTC)temp
F
wind
direction
speed
MPH
gust
MPH
rain 1hr
in
rain 24hr
in
rain mn
in
humidity
%
barometer
mb
20260509064741 52 337 0.0 0.0 0.00 0.00 0.00 60 1012.1
20260509064434 52 336 0.0 0.0 0.00 0.00 0.00 60 1012.2
20260509063710 52 336 0.0 0.0 0.00 0.00 0.00 60 1012.2
20260509063405 52 336 0.0 0.0 0.00 0.00 0.00 60 1012.3
20260509063053 52 336 0.0 0.0 0.00 0.00 0.00 60 1012.3
20260509062744 52 336 0.0 0.0 0.00 0.00 0.00 60 1012.4
20260509062438 52 336 0.0 0.0 0.00 0.00 0.00 60 1012.3
20260509062133 52 335 0.0 0.0 0.00 0.00 0.00 60 1012.3
20260509061818 52 59 0.0 0.0 0.00 0.00 0.00 59 1012.3
20260509061508 52 79 0.0 0.0 0.00 0.00 0.00 59 1012.4
20260509061157 53 95 0.0 0.0 0.00 0.00 0.00 59 1012.4
20260509060842 53 95 0.0 0.0 0.00 0.00 0.00 59 1012.4
20260509060528 53 92 0.0 0.0 0.00 0.00 0.00 59 1012.4
20260509060218 53 355 0.0 0.0 0.00 0.00 0.00 59 1012.3
20260509053741 54 342 0.0 0.0 0.00 0.00 0.00 58 1012.1
20260509053434 53 342 0.0 0.0 0.00 0.00 0.00 58 1012.3
20260509053126 54 342 0.0 0.0 0.00 0.00 0.00 58 1012.3
20260509052816 54 342 0.0 0.0 0.00 0.00 0.00 58 1012.3
20260509052512 54 342 0.0 0.0 0.00 0.00 0.00 58 1012.3
20260509051747 54 299 0.0 0.0 0.00 0.00 0.00 57 1012.4
20260509051436 54 299 0.0 0.0 0.00 0.00 0.00 57 1012.4
20260509051124 54 299 0.0 0.0 0.00 0.00 0.00 58 1012.4
20260509050811 54 299 0.0 0.0 0.00 0.00 0.00 57 1012.6
20260509050511 54 299 0.0 0.0 0.00 0.00 0.00 57 1012.5
20260509050201 54 299 0.0 0.0 0.00 0.00 0.00 58 1012.6
20260509045853 54 299 0.0 0.0 0.00 0.00 0.00 58 1012.7
20260509045553 54 299 0.0 0.0 0.00 0.00 0.00 58 1012.6
20260509045249 54 212 0.0 0.0 0.00 0.00 0.00 57 1012.7
20260509044947 54 212 0.0 0.0 0.00 0.00 0.00 57 1012.6
20260509044640 54 212 0.0 0.0 0.00 0.00 0.00 57 1012.7
20260509043923 54 212 0.0 0.0 0.00 0.00 0.00 57 1012.6
20260509042757 54 212 0.0 0.0 0.00 0.00 0.00 56 1012.6
20260509042447 54 212 0.0 0.0 0.00 0.00 0.00 55 1012.7
20260509042148 54 212 0.0 0.0 0.00 0.00 0.00 56 1012.7
20260509041835 54 212 0.0 0.0 0.00 0.00 0.00 56 1012.7
20260509041535 54 212 0.0 0.0 0.00 0.00 0.00 56 1012.7
20260509041226 54 240 0.0 0.0 0.00 0.00 0.00 55 1012.8
20260509040923 54 240 0.0 0.0 0.00 0.00 0.00 55 1012.7
20260509040620 54 240 0.0 0.0 0.00 0.00 0.00 54 1012.7
20260509040310 54 180 0.0 0.0 0.00 0.00 0.00 54 1012.6
20260509040000 54 180 0.0 0.0 0.00 0.00 0.00 54 1012.6
20260509035650 54 180 0.0 0.0 0.00 0.00 0.00 54 1012.7
20260509035353 55 180 0.0 0.0 0.00 0.00 0.00 53 1012.8
20260509035052 55 180 0.0 0.0 0.00 0.00 0.00 54 1012.8
20260509033900 55 180 0.0 0.0 0.00 0.00 0.00 52 1012.8
20260509033555 55 180 0.0 0.0 0.00 0.00 0.00 53 1012.9
20260509033243 55 180 0.0 0.0 0.00 0.00 0.00 52 1012.9
20260509032939 55 180 0.0 0.0 0.00 0.00 0.00 52 1013.0
20260509032634 55 180 0.0 0.0 0.00 0.00 0.00 52 1013.0
20260509032336 55 180 0.0 0.0 0.00 0.00 0.00 52 1013.1
20260509032026 55 180 0.0 0.0 0.00 0.00 0.00 52 1013.2
20260509031312 55 180 0.0 0.0 0.00 0.00 0.00 52 1013.2
20260509031002 55 254 0.0 0.0 0.00 0.00 0.00 52 1013.2
20260509030653 55 254 0.0 0.0 0.00 0.00 0.00 52 1013.1
20260509030350 55 254 0.0 0.0 0.00 0.00 0.00 52 1013.1
20260509030039 55 254 0.0 0.0 0.00 0.00 0.00 52 1013.1
20260509025316 55 254 0.0 0.0 0.00 0.00 0.00 51 1013.3
20260509025014 55 254 0.0 0.0 0.00 0.00 0.00 51 1013.3
20260509024708 55 254 0.0 0.0 0.00 0.00 0.00 51 1013.3
20260509024409 56 254 0.0 0.0 0.00 0.00 0.00 51 1013.3
20260509024056 56 254 0.0 0.0 0.00 0.00 0.00 51 1013.3
20260509023347 56 205 0.0 0.0 0.00 0.00 0.00 51 1013.2
20260509022631 56 226 0.0 0.0 0.00 0.00 0.00 51 1013.1
20260509022324 56 226 0.0 0.0 0.00 0.00 0.00 51 1013.2
20260509021558 56 239 0.0 0.0 0.00 0.00 0.00 51 1013.1
20260509020829 56 245 0.0 0.0 0.00 0.00 0.00 50 1013.0
20260509020529 56 245 0.0 0.0 0.00 0.00 0.00 50 1013.0
20260509020223 56 245 0.0 0.0 0.00 0.00 0.00 50 1012.9
20260509015910 56 245 0.0 0.0 0.00 0.00 0.00 49 1012.9
20260509015600 56 245 0.0 0.0 0.00 0.00 0.00 49 1012.7
20260509015253 57 245 0.0 0.0 0.00 0.00 0.00 49 1012.7
20260509014946 57 245 0.0 0.0 0.00 0.00 0.00 49 1012.8
20260509014646 57 245 0.0 0.0 0.00 0.00 0.00 48 1012.8
20260509014344 57 245 0.0 0.0 0.00 0.00 0.00 48 1012.8
20260509014036 57 245 0.0 0.0 0.00 0.00 0.00 48 1012.8
20260509013727 57 245 0.0 0.0 0.00 0.00 0.00 47 1012.6
20260509013419 57 245 0.0 0.0 0.00 0.00 0.00 47 1012.7
20260509013114 57 245 0.0 0.0 0.00 0.00 0.00 47 1012.7
20260509012800 57 245 0.0 0.0 0.00 0.00 0.00 47 1012.7
20260509012452 58 245 0.0 0.0 0.00 0.00 0.00 47 1012.7
20260509012150 58 245 0.0 0.0 0.00 0.00 0.00 46 1012.8
20260509011851 58 245 0.0 0.0 0.00 0.00 0.00 47 1012.7
20260509011547 58 245 0.0 0.0 0.00 0.00 0.00 47 1012.8
20260509011252 58 245 0.0 0.0 0.00 0.00 0.00 46 1012.7
20260509010952 58 245 0.0 0.0 0.00 0.00 0.00 45 1012.6
20260509010649 58 245 0.0 0.0 0.00 0.00 0.00 43 1012.7
20260509010353 58 246 0.0 0.0 0.00 0.00 0.00 44 1012.6
20260509010045 58 246 0.0 0.0 0.00 0.00 0.00 43 1012.7
20260509005312 58 246 0.0 0.0 0.00 0.00 0.00 43 1012.7
20260509004538 59 246 0.0 0.0 0.00 0.00 0.00 43 1012.6
20260509004239 59 246 0.0 0.0 0.00 0.00 0.00 42 1012.6
20260509003931 59 246 0.0 0.0 0.00 0.00 0.00 42 1012.6
20260509003635 59 246 0.0 0.0 0.00 0.00 0.00 43 1012.5
20260509002437 59 263 0.0 0.0 0.00 0.00 0.00 41 1012.5
20260509002138 60 263 0.0 0.0 0.00 0.00 0.00 40 1012.6
20260509001825 60 263 0.0 0.0 0.00 0.00 0.00 40 1012.6
20260509001523 60 263 0.0 0.0 0.00 0.00 0.00 40 1012.6
20260509001222 60 263 0.0 0.0 0.00 0.00 0.00 39 1012.6
20260509000911 60 263 0.0 0.0 0.00 0.00 0.00 39 1012.5
20260509000613 60 203 0.0 0.0 0.00 0.00 0.00 39 1012.5
20260509000311 60 203 0.0 0.0 0.00 0.00 0.00 39 1012.4
20260508235956 61 9 0.0 0.0 0.00 0.00 0.00 38 1012.3
20260508235238 61 286 0.0 5.0 0.00 0.00 0.00 38 1012.3
20260508234935 61 334 1.0 5.0 0.00 0.00 0.00 38 1012.3
20260508234627 61 257 0.0 5.0 0.00 0.00 0.00 37 1012.3
20260508234324 61 265 0.0 5.0 0.00 0.00 0.00 37 1012.2
20260508234014 62 207 0.0 5.0 0.00 0.00 0.00 36 1012.2
20260508233716 62 286 0.0 5.0 0.00 0.00 0.00 36 1012.1
20260508233402 62 94 1.0 7.0 0.00 0.00 0.00 36 1012.1
20260508233105 62 267 1.0 7.0 0.00 0.00 0.00 36 1012.1
20260508232758 62 281 2.0 7.0 0.00 0.00 0.00 35 1012.0
20260508232456 62 244 2.0 7.0 0.00 0.00 0.00 35 1012.0
20260508231740 63 331 3.0 10.0 0.00 0.00 0.00 34 1011.9
20260508231427 63 277 4.0 10.0 0.00 0.00 0.00 34 1011.8
20260508230237 63 208 3.0 11.0 0.00 0.00 0.00 34 1011.8
20260508225924 63 342 2.0 11.0 0.00 0.00 0.00 34 1011.8
20260508225615 63 304 2.0 11.0 0.00 0.00 0.00 34 1011.9
20260508225310 64 54 1.0 5.0 0.00 0.00 0.00 35 1011.9
20260508225001 64 285 1.0 3.0 0.00 0.00 0.00 34 1012.0
20260508224650 64 250 1.0 3.0 0.00 0.00 0.00 35 1012.0
20260508224350 64 318 1.0 3.0 0.00 0.00 0.00 35 1011.9
20260508224041 64 259 1.0 7.0 0.00 0.00 0.00 34 1011.9
20260508222430 64 273 1.0 7.0 0.00 0.00 0.00 33 1011.9
20260508222119 64 193 1.0 8.0 0.00 0.00 0.00 35 1011.8
20260508221814 64 245 1.0 8.0 0.00 0.00 0.00 34 1011.7
20260508221503 64 273 2.0 8.0 0.00 0.00 0.00 34 1011.7
20260508221157 64 277 2.0 8.0 0.00 0.00 0.00 33 1011.6
20260508220437 64 254 2.0 8.0 0.00 0.00 0.00 32 1011.8
20260508215245 64 304 2.0 9.0 0.00 0.00 0.00 32 1011.8
20260508214944 64 292 2.0 12.0 0.00 0.00 0.00 34 1011.8
20260508214638 64 217 2.0 12.0 0.00 0.00 0.00 32 1011.8
20260508213907 64 210 2.0 12.0 0.00 0.00 0.00 31 1011.8
20260508213604 64 227 3.0 12.0 0.00 0.00 0.00 31 1011.9
20260508212837 64 296 4.0 12.0 0.00 0.00 0.00 29 1012.0
20260508212534 64 257 4.0 12.0 0.00 0.00 0.00 29 1011.8
20260508212235 64 275 4.0 12.0 0.00 0.00 0.00 29 1012.0
20260508211930 64 282 3.0 11.0 0.00 0.00 0.00 29 1011.8
20260508211631 64 286 3.0 11.0 0.00 0.00 0.00 28 1011.8
20260508211326 65 300 4.0 11.0 0.00 0.00 0.00 28 1011.8
20260508211017 65 314 4.0 11.0 0.00 0.00 0.00 28 1011.8
20260508210711 65 285 4.0 11.0 0.00 0.00 0.00 27 1011.8
20260508210415 65 234 4.0 11.0 0.00 0.00 0.00 27 1011.8
20260508205652 65 281 3.0 10.0 0.00 0.00 0.00 28 1011.6
20260508205341 65 292 3.0 9.0 0.00 0.00 0.00 27 1011.7
20260508205030 65 164 3.0 9.0 0.00 0.00 0.00 27 1011.8
20260508204727 65 208 3.0 9.0 0.00 0.00 0.00 26 1011.8
20260508204418 65 190 2.0 9.0 0.00 0.00 0.00 26 1011.7
20260508203701 65 255 3.0 10.0 0.00 0.00 0.00 26 1011.8
20260508203404 65 209 3.0 10.0 0.00 0.00 0.00 26 1011.8
20260508203049 65 307 3.0 15.0 0.00 0.00 0.00 27 1011.7
20260508202745 65 278 4.0 15.0 0.00 0.00 0.00 26 1011.7
20260508202441 65 271 4.0 15.0 0.00 0.00 0.00 26 1011.7
20260508202136 65 323 5.0 15.0 0.00 0.00 0.00 25 1011.7
20260508201409 65 320 5.0 15.0 0.00 0.00 0.00 24 1011.9
20260508201107 65 293 5.0 15.0 0.00 0.00 0.00 24 1011.9
20260508200801 65 197 4.0 15.0 0.00 0.00 0.00 25 1011.9
20260508200041 65 238 2.0 8.0 0.00 0.00 0.00 26 1011.7
20260508195737 65 280 2.0 8.0 0.00 0.00 0.00 25 1011.6
20260508195430 65 274 2.0 8.0 0.00 0.00 0.00 26 1011.6
20260508195118 65 244 2.0 11.0 0.00 0.00 0.00 25 1011.7
20260508194807 65 281 3.0 11.0 0.00 0.00 0.00 25 1011.7
20260508194509 65 177 3.0 11.0 0.00 0.00 0.00 25 1011.7
20260508194156 65 186 4.0 13.0 0.00 0.00 0.00 26 1011.6
20260508193851 66 312 4.0 13.0 0.00 0.00 0.00 24 1011.6
20260508193133 67 239 4.0 13.0 0.00 0.00 0.00 24 1011.8
20260508192409 68 220 4.0 13.0 0.00 0.00 0.00 23 1011.9
20260508192103 68 332 3.0 9.0 0.00 0.00 0.00 24 1011.8
20260508191328 69 199 5.0 18.0 0.00 0.00 0.00 24 1011.8
20260508191016 69 261 5.0 18.0 0.00 0.00 0.00 23 1011.9
20260508190708 69 279 6.0 18.0 0.00 0.00 0.00 26 1011.9
20260508190409 69 274 6.0 18.0 0.00 0.00 0.00 28 1011.9
20260508190112 68 237 6.0 18.0 0.00 0.00 0.00 26 1012.0
20260508185813 68 294 6.0 18.0 0.00 0.00 0.00 26 1012.0
20260508185513 67 281 5.0 14.0 0.00 0.00 0.00 27 1012.1
20260508185206 67 305 4.0 13.0 0.00 0.00 0.00 28 1012.1
20260508184854 67 267 4.0 13.0 0.00 0.00 0.00 26 1012.2
20260508184544 67 265 3.0 9.0 0.00 0.00 0.00 27 1012.3
20260508184238 67 283 4.0 18.0 0.00 0.00 0.00 27 1012.3
20260508183933 67 336 4.0 18.0 0.00 0.00 0.00 29 1012.4
20260508183635 67 323 4.0 18.0 0.00 0.00 0.00 27 1012.3
20260508183323 67 319 5.0 18.0 0.00 0.00 0.00 28 1012.4
20260508183012 66 244 5.0 18.0 0.00 0.00 0.00 29 1012.4
20260508181834 64 240 2.0 12.0 0.00 0.00 0.00 30 1012.6
20260508181525 64 191 2.0 12.0 0.00 0.00 0.00 31 1012.6
20260508181221 64 304 2.0 12.0 0.00 0.00 0.00 31 1012.6
20260508180915 64 22 3.0 12.0 0.00 0.00 0.00 32 1012.6
20260508180609 64 303 3.0 15.0 0.00 0.00 0.00 31 1012.7
20260508175009 64 297 5.0 15.0 0.00 0.00 0.00 30 1012.7
20260508174711 64 275 4.0 15.0 0.00 0.00 0.00 30 1012.8
20260508174400 64 275 4.0 12.0 0.00 0.00 0.00 32 1012.7
20260508174057 64 277 4.0 11.0 0.00 0.00 0.00 30 1012.8
20260508173744 63 345 4.0 11.0 0.00 0.00 0.00 33 1012.8
20260508173431 63 164 4.0 11.0 0.00 0.00 0.00 32 1012.9
20260508173125 63 149 3.0 11.0 0.00 0.00 0.00 32 1013.0
20260508172824 63 306 3.0 14.0 0.00 0.00 0.00 32 1013.0
20260508172523 63 231 3.0 14.0 0.00 0.00 0.00 31 1013.1
20260508172216 63 341 3.0 14.0 0.00 0.00 0.00 30 1013.0
20260508171911 63 228 4.0 14.0 0.00 0.00 0.00 31 1013.1
20260508171558 62 165 4.0 14.0 0.00 0.00 0.00 31 1013.1
20260508171246 62 296 4.0 14.0 0.00 0.00 0.00 31 1013.2
20260508165800 63 185 4.0 14.0 0.00 0.00 0.00 29 1013.4
20260508165501 63 205 4.0 14.0 0.00 0.00 0.00 28 1013.5
20260508165155 64 219 4.0 12.0 0.00 0.00 0.00 30 1013.5
20260508164854 64 156 3.0 12.0 0.00 0.00 0.00 29 1013.5
20260508164553 63 184 3.0 12.0 0.00 0.00 0.00 33 1013.5
20260508163819 63 65 4.0 12.0 0.00 0.00 0.00 29 1013.5
20260508162635 63 318 5.0 12.0 0.00 0.00 0.00 31 1013.7
20260508162332 63 235 5.0 13.0 0.00 0.00 0.00 30 1013.7
20260508162019 62 246 4.0 13.0 0.00 0.00 0.00 31 1013.8
20260508161721 62 174 4.0 13.0 0.00 0.00 0.00 30 1013.8
20260508161425 62 221 5.0 19.0 0.00 0.00 0.00 30 1013.9
20260508161128 62 319 5.0 19.0 0.00 0.00 0.00 31 1014.0
20260508160823 61 275 5.0 19.0 0.00 0.00 0.00 29 1013.9
20260508160526 62 290 5.0 19.0 0.00 0.00 0.00 30 1014.1
20260508160227 62 288 5.0 19.0 0.00 0.00 0.00 30 1014.1
20260508155925 62 265 5.0 19.0 0.00 0.00 0.00 29 1014.1
20260508155616 62 144 5.0 19.0 0.00 0.00 0.00 29 1014.2
20260508155307 62 250 4.0 15.0 0.00 0.00 0.00 31 1014.0
20260508155001 62 331 4.0 15.0 0.00 0.00 0.00 31 1014.0
20260508154652 62 348 5.0 15.0 0.00 0.00 0.00 29 1014.2
20260508153934 62 240 6.0 16.0 0.00 0.00 0.00 30 1014.2
20260508153622 63 272 6.0 16.0 0.00 0.00 0.00 30 1014.2
20260508153312 63 336 5.0 16.0 0.00 0.00 0.00 30 1014.1
20260508153000 63 245 5.0 16.0 0.00 0.00 0.00 32 1014.1
20260508152218 62 292 6.0 13.0 0.00 0.00 0.00 31 1014.3
20260508151921 62 281 6.0 17.0 0.00 0.00 0.00 30 1014.3
20260508151621 62 179 6.0 17.0 0.00 0.00 0.00 32 1014.4
20260508151320 62 198 5.0 17.0 0.00 0.00 0.00 32 1014.4
20260508151010 62 202 6.0 17.0 0.00 0.00 0.00 32 1014.4
20260508150657 61 225 5.0 17.0 0.00 0.00 0.00 34 1014.5
20260508150345 61 208 5.0 17.0 0.00 0.00 0.00 35 1014.5
20260508150037 60 237 5.0 17.0 0.00 0.00 0.00 34 1014.5
20260508145728 60 232 4.0 14.0 0.00 0.00 0.00 32 1014.5
20260508145420 60 253 4.0 10.0 0.00 0.00 0.00 33 1014.5
20260508143803 60 296 5.0 19.0 0.00 0.00 0.00 34 1014.8
20260508143458 60 313 4.0 19.0 0.00 0.00 0.00 35 1014.8
20260508143158 59 222 5.0 19.0 0.00 0.00 0.00 34 1014.7
20260508142856 59 294 4.0 19.0 0.00 0.00 0.00 34 1014.8
20260508142139 59 229 4.0 16.0 0.00 0.00 0.00 34 1014.7
20260508141841 58 330 4.0 16.0 0.00 0.00 0.00 35 1014.7
20260508141528 58 304 4.0 13.0 0.00 0.00 0.00 36 1014.8
20260508141223 58 258 4.0 13.0 0.00 0.00 0.00 36 1014.7
20260508140923 57 171 4.0 12.0 0.00 0.00 0.00 36 1014.7
20260508140620 57 17 4.0 12.0 0.00 0.00 0.00 37 1014.9
20260508140319 57 192 3.0 12.0 0.00 0.00 0.00 38 1014.9
20260508140020 56 226 2.0 8.0 0.00 0.00 0.00 39 1014.8
20260508135720 55 346 2.0 8.0 0.00 0.00 0.00 42 1014.7
20260508134958 54 219 3.0 8.0 0.00 0.00 0.00 43 1014.9
20260508134701 54 211 2.0 8.0 0.00 0.00 0.00 46 1015.0
20260508134346 53 176 1.0 8.0 0.00 0.00 0.00 47 1015.0
20260508134038 52 165 1.0 4.0 0.00 0.00 0.00 48 1015.3
20260508133321 51 31 0.0 4.0 0.00 0.00 0.00 49 1015.3
20260508133023 51 157 0.0 4.0 0.00 0.00 0.00 49 1015.4
20260508132712 51 146 0.0 4.0 0.00 0.00 0.00 50 1015.4
20260508132413 50 279 1.0 4.0 0.00 0.00 0.00 51 1015.5
20260508132100 50 273 1.0 4.0 0.00 0.00 0.00 52 1015.6
20260508131758 49 325 0.0 4.0 0.00 0.00 0.00 52 1015.6
20260508131455 49 190 0.0 3.0 0.00 0.00 0.00 52 1015.8
20260508130726 48 244 0.0 4.0 0.00 0.00 0.00 53 1015.7
20260508130413 48 321 0.0 2.0 0.00 0.00 0.00 54 1015.8
20260508130107 47 303 0.0 0.0 0.00 0.00 0.00 54 1015.7
20260508125802 47 303 1.0 4.0 0.00 0.00 0.00 54 1015.7
20260508125503 47 311 1.0 5.0 0.00 0.00 0.00 54 1015.7
20260508123851 46 292 1.0 6.0 0.00 0.00 0.00 55 1015.7
20260508123544 46 318 1.0 6.0 0.00 0.00 0.00 54 1015.7
20260508123232 46 292 1.0 6.0 0.00 0.00 0.00 55 1015.7
20260508122936 45 298 1.0 6.0 0.00 0.00 0.00 55 1015.7
20260508122627 45 292 1.0 6.0 0.00 0.00 0.00 55 1015.6
20260508122318 45 311 1.0 3.0 0.00 0.00 0.00 56 1015.7
20260508122010 45 283 0.0 3.0 0.00 0.00 0.00 56 1015.7
20260508121701 45 278 1.0 6.0 0.00 0.00 0.00 56 1015.7
20260508121357 45 284 1.0 6.0 0.00 0.00 0.00 55 1015.6
20260508121101 45 313 1.0 6.0 0.00 0.00 0.00 55 1015.6
20260508115921 45 281 2.0 5.0 0.00 0.00 0.00 55 1015.5
20260508115617 44 306 2.0 5.0 0.00 0.00 0.00 54 1015.5
20260508115317 44 273 2.0 5.0 0.00 0.00 0.00 55 1015.5
20260508115004 44 276 1.0 5.0 0.00 0.00 0.00 55 1015.4
20260508114654 44 289 1.0 5.0 0.00 0.00 0.00 55 1015.5
20260508113921 44 291 0.0 5.0 0.00 0.00 0.00 56 1015.6
20260508113616 44 294 0.0 3.0 0.00 0.00 0.00 57 1015.5
20260508113315 43 255 0.0 0.0 0.00 0.00 0.00 58 1015.5
20260508113013 43 249 0.0 2.0 0.00 0.00 0.00 59 1015.3
20260508112704 43 301 0.0 2.0 0.00 0.00 0.00 59 1015.3
20260508112400 43 272 0.0 2.0 0.00 0.00 0.00 59 1015.3
20260508112049 42 275 0.0 2.0 0.00 0.00 0.00 60 1015.2
20260508111748 42 306 0.0 2.0 0.00 0.00 0.00 62 1015.2
20260508111436 41 31 0.0 0.0 0.00 0.00 0.00 62 1015.1
20260508110720 40 277 0.0 2.0 0.00 0.00 0.00 63 1015.0
20260508110414 40 313 0.0 0.0 0.00 0.00 0.00 64 1015.0
20260508110113 39 349 0.0 0.0 0.00 0.00 0.00 64 1015.1
20260508105801 39 349 0.0 0.0 0.00 0.00 0.00 64 1015.0
20260508105452 39 349 0.0 0.0 0.00 0.00 0.00 64 1014.9
20260508105138 39 349 0.0 0.0 0.00 0.00 0.00 64 1014.8
20260508104828 39 350 0.0 0.0 0.00 0.00 0.00 64 1014.9
20260508104519 38 232 0.0 0.0 0.00 0.00 0.00 64 1014.9
20260508103745 38 232 0.0 0.0 0.00 0.00 0.00 63 1014.7
20260508103432 38 232 0.0 0.0 0.00 0.00 0.00 63 1014.7
20260508103119 38 232 0.0 0.0 0.00 0.00 0.00 63 1014.8
20260508102816 38 232 0.0 0.0 0.00 0.00 0.00 63 1014.8
20260508102517 38 232 0.0 0.0 0.00 0.00 0.00 63 1014.8
20260508102221 38 232 0.0 0.0 0.00 0.00 0.00 63 1014.9
20260508101920 38 232 0.0 0.0 0.00 0.00 0.00 63 1014.9
20260508101610 39 232 0.0 0.0 0.00 0.00 0.00 63 1014.8
20260508100839 39 232 0.0 0.0 0.00 0.00 0.00 62 1014.6
20260508100107 39 232 0.0 0.0 0.00 0.00 0.00 61 1014.2
20260508095806 39 232 0.0 0.0 0.00 0.00 0.00 61 1014.2
20260508095453 39 232 0.0 0.0 0.00 0.00 0.00 61 1014.3
20260508095146 39 232 0.0 0.0 0.00 0.00 0.00 61 1014.3
20260508094843 39 232 0.0 0.0 0.00 0.00 0.00 61 1014.2
20260508094119 40 232 0.0 0.0 0.00 0.00 0.00 61 1014.3
20260508093807 40 232 0.0 0.0 0.00 0.00 0.00 61 1014.2
20260508093042 40 159 0.0 0.0 0.00 0.00 0.00 61 1014.2
20260508092318 40 159 0.0 0.0 0.00 0.00 0.00 60 1014.2
20260508092006 40 159 0.0 0.0 0.00 0.00 0.00 60 1014.3
20260508091700 40 159 0.0 0.0 0.00 0.00 0.00 60 1014.3
20260508091352 40 159 0.0 0.0 0.00 0.00 0.00 60 1014.3
20260508091044 41 159 0.0 0.0 0.00 0.00 0.00 60 1014.3
20260508090737 41 159 0.0 0.0 0.00 0.00 0.00 60 1014.3
20260508090021 41 159 0.0 0.0 0.00 0.00 0.00 60 1014.3
20260508085711 41 159 0.0 0.0 0.00 0.00 0.00 60 1014.3
20260508085406 41 159 0.0 0.0 0.00 0.00 0.00 59 1014.3
20260508085106 41 159 0.0 0.0 0.00 0.00 0.00 59 1014.2
20260508084758 41 182 0.0 0.0 0.00 0.00 0.00 59 1014.3
20260508084446 41 182 0.0 0.0 0.00 0.00 0.00 59 1014.3
20260508084145 41 182 0.0 0.0 0.00 0.00 0.00 59 1014.3
20260508083405 41 182 0.0 0.0 0.00 0.00 0.00 60 1014.1
20260508083058 42 182 0.0 0.0 0.00 0.00 0.00 60 1014.1
20260508082749 42 182 0.0 0.0 0.00 0.00 0.00 59 1014.1
20260508082014 42 175 0.0 0.0 0.00 0.00 0.00 58 1014.0
20260508081701 42 175 0.0 0.0 0.00 0.00 0.00 58 1014.0
20260508081353 42 153 0.0 0.0 0.00 0.00 0.00 58 1014.0
20260508081045 42 153 0.0 0.0 0.00 0.00 0.00 58 1014.0
20260508080324 42 153 0.0 0.0 0.00 0.00 0.00 57 1014.0
20260508075557 43 153 0.0 0.0 0.00 0.00 0.00 56 1013.8
20260508075255 43 153 0.0 0.0 0.00 0.00 0.00 56 1013.8
20260508074950 43 153 0.0 0.0 0.00 0.00 0.00 56 1013.9
20260508074644 43 153 0.0 0.0 0.00 0.00 0.00 55 1013.9
20260508074348 43 153 0.0 0.0 0.00 0.00 0.00 55 1013.8
20260508074035 44 153 0.0 0.0 0.00 0.00 0.00 54 1013.9
20260508073318 44 153 0.0 0.0 0.00 0.00 0.00 54 1013.9
20260508073018 44 153 0.0 0.0 0.00 0.00 0.00 53 1013.9
20260508072711 44 153 0.0 0.0 0.00 0.00 0.00 53 1013.8
20260508072408 45 153 0.0 0.0 0.00 0.00 0.00 53 1013.8
20260508072105 45 153 0.0 0.0 0.00 0.00 0.00 52 1013.7
20260508071806 45 153 0.0 0.0 0.00 0.00 0.00 52 1013.7
20260508071045 46 153 0.0 0.0 0.00 0.00 0.00 51 1013.7
20260508070742 46 153 0.0 0.0 0.00 0.00 0.00 50 1013.7
20260508070436 46 153 0.0 0.0 0.00 0.00 0.00 50 1013.7
20260508070141 46 153 0.0 0.0 0.00 0.00 0.00 50 1013.7
20260508065829 47 153 0.0 0.0 0.00 0.00 0.00 49 1013.7
20260508065530 47 153 0.0 0.0 0.00 0.00 0.00 49 1013.7
20260508064811 47 153 0.0 0.0 0.00 0.00 0.00 48 1013.7